Clarksburg, WV

6:31 PM EDT on July 20, 2019 (GMT -0400)
Benedum

Weather History for KCKB - May, 2019

Change the Weather History Date:

Saturday, May 11, 2019

  Actual Average Record
Temperature  
Mean Temperature 58 °F -  
Max Temperature 62 °F 71 °F 95 °F (1936)
Min Temperature 54 °F 44 °F 27 °F (1947)
Degree Days  
Heating Degree Days 7    
Month to date heating degree days 15  
Growing Degree Days 8 (Base 50)    
Moisture  
Dew Point 50 °F    
Average Humidity 80    
Maximum Humidity 93    
Minimum Humidity 66    
Precipitation  
Precipitation 0.14 in - - ()
Month to date precipitation 0.77  
Year to date precipitation 14.90  
Sea Level Pressure  
Sea Level Pressure 29.97 in    
Wind  
Wind Speed 6 mph (North)    
Max Wind Speed 14 mph    
Max Gust Speed 18 mph    
Visibility 9 miles    
Events Rain    
Averages and records for this station are not official NWS values.
T = Trace of Precipitation, MM = Missing Value Source: NWS Daily Summary

Daily Weather History Graph

Daily Weather History Graph

Search for Another Location

Airport or City:

Astronomy

May. 11, 2019 Rise Set
Actual Time 6:11 AM EDT 8:23 PM EDT
Civil Twilight 5:41 AM EDT 8:53 PM EDT
Nautical Twilight 5:05 AM EDT 9:30 PM EDT
Astronomical Twilight 4:25 AM EDT 10:10 PM EDT
Moon 12:18 PM EDT (5/11) 2:03 AM EDT (5/11)
Length of Visible Light 15h 12m
Length of Day
14h 12m
Waxing Crescent, 46% of the Moon is Illuminated
May 11
Waxing Crescent
May 11
First Quarter
May 18
Full
May 26
Last Quarter
Jun 3
New

Hourly Weather History & Observations

Time (EDT) Temp. Dew Point Humidity Pressure Visibility Wind Dir Wind Speed Gust Speed Precip Events Conditions
12:53 AM 62.1 °F 53.1 °F 72% 30.05 in 10.0 mi West 4.6 mph - N/A   Overcast
1:53 AM 61.0 °F 52.0 °F 72% 30.05 in 10.0 mi WNW 4.6 mph - N/A   Overcast
2:53 AM 60.1 °F 52.0 °F 75% 30.05 in 10.0 mi WNW 5.8 mph - N/A   Overcast
3:04 AM 60.1 °F 52.0 °F 75% 30.08 in 10.0 mi WNW 5.8 mph - N/A   Overcast
3:25 AM 59.0 °F 52.0 °F 78% 30.08 in 10.0 mi NW 4.6 mph - N/A   Overcast
3:37 AM 59.0 °F 52.0 °F 78% 30.09 in 10.0 mi NNW 3.5 mph - N/A   Overcast
3:53 AM 59.0 °F 52.0 °F 78% 30.06 in 10.0 mi NNW 3.5 mph - N/A   Overcast
4:02 AM 59.0 °F 52.0 °F 78% 30.08 in 10.0 mi North 6.9 mph - N/A   Overcast
4:53 AM 57.0 °F 48.9 °F 74% 30.06 in 10.0 mi North 9.2 mph - N/A   Overcast
5:03 AM 55.9 °F 48.9 °F 77% 30.08 in 10.0 mi NNE 6.9 mph - N/A   Overcast
5:53 AM 55.9 °F 48.0 °F 75% 30.05 in 10.0 mi NNE 3.5 mph - N/A   Overcast
6:53 AM 55.0 °F 48.0 °F 77% 30.05 in 10.0 mi NNE 9.2 mph - N/A   Overcast
7:14 AM 55.0 °F 46.9 °F 74% 30.08 in 10.0 mi NNE 11.5 mph - N/A   Overcast
7:51 AM 53.6 °F 46.4 °F 77% 30.08 in 10.0 mi NE 8.1 mph - N/A   Overcast
7:53 AM 54.0 °F 46.0 °F 75% 30.06 in 10.0 mi NE 6.9 mph - N/A   Overcast
8:53 AM 55.0 °F 44.1 °F 67% 30.06 in 10.0 mi ENE 5.8 mph - N/A   Overcast
9:53 AM 55.0 °F 46.0 °F 72% 30.06 in 10.0 mi Variable 4.6 mph - N/A   Overcast
10:53 AM 55.0 °F 46.9 °F 74% 30.05 in 10.0 mi NE 6.9 mph - 0.01 in   Overcast
11:53 AM 57.9 °F 48.9 °F 72% 30.04 in 10.0 mi NE 8.1 mph - 0.00 in   Overcast
12:53 PM 57.9 °F 50.0 °F 75% 30.01 in 10.0 mi North 6.9 mph - 0.00 in   Overcast
1:53 PM 59.0 °F 50.0 °F 72% 29.99 in 10.0 mi NNE 5.8 mph - N/A   Overcast
2:22 PM 57.9 °F 48.9 °F 72% 30.00 in 10.0 mi NNE 6.9 mph - N/A   Overcast
2:53 PM 59.0 °F 48.9 °F 69% 29.95 in 10.0 mi NNE 10.4 mph - N/A   Overcast
3:53 PM 59.0 °F 48.9 °F 69% 29.92 in 10.0 mi NNE 10.4 mph - N/A   Overcast
4:53 PM 57.9 °F 48.0 °F 70% 29.89 in 10.0 mi North 11.5 mph - N/A   Overcast
5:53 PM 55.9 °F 48.0 °F 75% 29.88 in 6.0 mi North 11.5 mph - 0.00 in Rain Light Rain
6:40 PM 54.0 °F 50.0 °F 86% 29.89 in 7.0 mi NNW 5.8 mph - 0.01 in Rain Light Rain
6:53 PM 54.0 °F 50.0 °F 86% 29.87 in 7.0 mi NNW 6.9 mph - 0.01 in Rain Light Rain
6:55 PM 54.0 °F 50.0 °F 86% 29.89 in 7.0 mi NNW 6.9 mph - 0.00 in Rain Light Rain
7:53 PM 54.0 °F 51.1 °F 90% 29.86 in 5.0 mi NNE 6.9 mph - 0.01 in Rain Light Rain
8:06 PM 54.0 °F 51.1 °F 90% 29.87 in 2.0 mi North 6.9 mph - 0.03 in Rain Rain
8:13 PM 54.0 °F 51.1 °F 90% 29.87 in 1.5 mi North 4.6 mph - 0.05 in Rain Rain
8:28 PM 54.0 °F 51.1 °F 90% 29.86 in 3.0 mi NNE 8.1 mph - 0.08 in Rain Light Rain
8:53 PM 54.0 °F 51.1 °F 90% 29.84 in 5.0 mi North 4.6 mph - 0.09 in Rain Light Rain
9:53 PM 55.0 °F 52.0 °F 89% 29.82 in 8.0 mi ENE 3.5 mph - 0.01 in   Overcast
10:23 PM 55.9 °F 52.0 °F 87% 29.82 in 10.0 mi Calm Calm - N/A   Overcast
10:53 PM 55.9 °F 53.1 °F 90% 29.80 in 10.0 mi Calm Calm - N/A   Overcast
11:53 PM 55.9 °F 53.1 °F 90% 29.79 in 6.0 mi Calm Calm - N/A   Overcast